BEIDOU 11 (C05)

Last updated on Aug. 13, 2020, 5:30 a.m. UTC

1 38091U 12008A   20225.70112090  .00000058  00000-0  00000-0 0  9996
2 38091   1.5943  68.3331 0001606 291.9320 272.4573  1.00269117 31076
UTC
Height (km)
Latitude
Longitude
Inclination
Orbital Period
UTC large
Height (km)
Speed (km/s)
/
Latitude / Longitude
Inclination (degrees)
Orbital Period (minutes)
Azimuth
Elevation
Range (km)
Doppler Factor
iOS Compass Heading
iOS Angle

Next 30 passes for location: Hong Kong

Rise time Rise Azimuth (degrees) Set time Set Azimuth (degrees) Duration Max altitude (degrees)

No matching passes for this satellites